Location: Newark
(48.7875°N, 2.3928°E)
Time: 21:18:27
(UTC+00:00)

N. Korean satellite - Pass Details

Date: 27 October 2019
Orbit: 456 x 506 km, 97.2° (Epoch: 18 November)

Event Time Altitude Azimuth Distance (km) Brightness Sun altitude
Rises 04:56:01 0° 26° (NNE) 2,584 10.6 -15.8°
Reaches altitude 10° 04:58:31 10° 44° (NE) 1,704 9.9 -15.4°
Maximum altitude 05:01:17 20° 93° (E) 1,208 9.6 -14.9°
Drops below altitude 10° 05:04:03 10° 142° (SE) 1,708 9.9 -14.5°
Sets 05:06:33 0° 159° (SSE) 2,592 10.6 -14.1°
